| time (UTC) | temp F | wind direction | speed MPH | gust MPH | rain 1hr in | rain 24hr in | rain mn in | humidity % | barometer mb |
| 20260904071731 | 88 | 45 | 3.0 | 7.0 | 0.00 | 0.00 | 0.00 | 21 | 1017.2 |
| 20260904071231 | 88 | 90 | 3.0 | 5.0 | 0.00 | 0.00 | 0.00 | 20 | 1017.2 |
| 20260904070727 | 88 | 67 | 4.0 | 8.0 | 0.00 | 0.00 | 0.00 | 20 | 1017.2 |
| 20260904070225 | 88 | 45 | 4.0 | 9.0 | 0.00 | 0.00 | 0.00 | 19 | 1017.1 |
| 20260904065723 | 88 | 90 | 8.0 | 10.0 | 0.00 | 0.00 | 0.00 | 19 | 1017.1 |
| 20260904065221 | 88 | 90 | 4.0 | 9.0 | 0.00 | 0.00 | 0.00 | 19 | 1017.1 |
| 20260904064719 | 89 | 56 | 8.0 | 8.0 | 0.00 | 0.00 | 0.00 | 19 | 1017.1 |
| 20260904064216 | 89 | 90 | 5.0 | 10.0 | 0.00 | 0.00 | 0.00 | 19 | 1017.1 |
| 20260904063716 | 89 | 90 | 10.0 | 13.0 | 0.00 | 0.00 | 0.00 | 19 | 1017.1 |
| 20260904063212 | 89 | 90 | 7.0 | 10.0 | 0.00 | 0.00 | 0.00 | 19 | 1017.1 |
| 20260904062710 | 89 | 90 | 6.0 | 10.0 | 0.00 | 0.00 | 0.00 | 18 | 1017.0 |
| 20260904062206 | 89 | 78 | 8.0 | 13.0 | 0.00 | 0.00 | 0.00 | 19 | 1017.1 |
| 20260904061706 | 89 | 45 | 9.0 | 11.0 | 0.00 | 0.00 | 0.00 | 18 | 1017.0 |
| 20260904061203 | 90 | 90 | 6.0 | 15.0 | 0.00 | 0.00 | 0.00 | 18 | 1017.0 |
| 20260904060811 | 90 | 67 | 15.0 | 15.0 | 0.00 | 0.00 | 0.00 | 18 | 1016.9 |
| 20260904060016 | 90 | 90 | 7.0 | 10.0 | 0.00 | 0.00 | 0.00 | 18 | 1016.9 |
| 20260904055012 | 90 | 45 | 7.0 | 13.0 | 0.00 | 0.00 | 0.00 | 18 | 1016.9 |
| 20260904054508 | 90 | 90 | 13.0 | 28.0 | 0.00 | 0.00 | 0.00 | 19 | 1016.9 |
| 20260904054406 | 90 | 67 | 28.0 | 28.0 | 0.00 | 0.00 | 0.00 | 19 | 1016.9 |
| 20260904054305 | 90 | 90 | 15.0 | 15.0 | 0.00 | 0.00 | 0.00 | 19 | 1016.9 |
| 20260904054043 | 90 | 67 | 7.0 | 13.0 | 0.00 | 0.00 | 0.00 | 19 | 1016.8 |
| 20260904053540 | 90 | 90 | 9.0 | 16.0 | 0.00 | 0.00 | 0.00 | 20 | 1017.0 |
| 20260904053039 | 90 | 67 | 11.0 | 14.0 | 0.00 | 0.00 | 0.00 | 19 | 1016.9 |
| 20260904052535 | 90 | 45 | 11.0 | 12.0 | 0.00 | 0.00 | 0.00 | 20 | 1016.9 |
| 20260904052033 | 90 | 90 | 5.0 | 6.0 | 0.00 | 0.00 | 0.00 | 21 | 1016.9 |
| 20260904051532 | 90 | 45 | 5.0 | 11.0 | 0.00 | 0.00 | 0.00 | 20 | 1017.2 |
| 20260904051031 | 90 | 90 | 7.0 | 13.0 | 0.00 | 0.00 | 0.00 | 20 | 1017.1 |
| 20260904050527 | 90 | 90 | 11.0 | 11.0 | 0.00 | 0.00 | 0.00 | 21 | 1017.2 |
| 20260904050035 | 90 | 67 | 3.0 | 9.0 | 0.00 | 0.00 | 0.00 | 21 | 1017.2 |
| 20260904045532 | 90 | 67 | 9.0 | 12.0 | 0.00 | 0.00 | 0.00 | 21 | 1017.3 |
| 20260904045030 | 90 | 90 | 6.0 | 11.0 | 0.00 | 0.00 | 0.00 | 20 | 1017.2 |
| 20260904044527 | 90 | 135 | 10.0 | 12.0 | 0.00 | 0.00 | 0.00 | 20 | 1017.3 |
| 20260904044025 | 90 | 135 | 7.0 | 9.0 | 0.00 | 0.00 | 0.00 | 21 | 1017.3 |
| 20260904043522 | 90 | 135 | 2.0 | 10.0 | 0.00 | 0.00 | 0.00 | 21 | 1017.5 |
| 20260904043022 | 90 | 90 | 9.0 | 11.0 | 0.00 | 0.00 | 0.00 | 21 | 1017.6 |
| 20260904042520 | 90 | 135 | 6.0 | 8.0 | 0.00 | 0.00 | 0.00 | 22 | 1017.7 |
| 20260904042017 | 90 | 112 | 6.0 | 10.0 | 0.00 | 0.00 | 0.00 | 21 | 1017.8 |
| 20260904041514 | 90 | 45 | 10.0 | 10.0 | 0.00 | 0.00 | 0.00 | 21 | 1017.8 |
| 20260904041012 | 90 | 0 | 6.0 | 16.0 | 0.00 | 0.00 | 0.00 | 21 | 1017.9 |
| 20260904040910 | 90 | 135 | 15.0 | 15.0 | 0.00 | 0.00 | 0.00 | 22 | 1017.6 |
| 20260904040748 | 90 | 90 | 6.0 | 10.0 | 0.00 | 0.00 | 0.00 | 21 | 1017.8 |
| 20260904040244 | 89 | 90 | 2.0 | 2.0 | 0.00 | 0.00 | 0.00 | 23 | 1018.0 |
| 20260904035241 | 89 | 90 | 6.0 | 9.0 | 0.00 | 0.00 | 0.00 | 22 | 1018.2 |
| 20260904034739 | 90 | 112 | 4.0 | 10.0 | 0.00 | 0.00 | 0.00 | 22 | 1018.3 |
| 20260904034237 | 90 | 157 | 5.0 | 6.0 | 0.00 | 0.00 | 0.00 | 23 | 1018.4 |
| 20260904033735 | 89 | 22 | 2.0 | 4.0 | 0.00 | 0.00 | 0.00 | 23 | 1018.5 |
| 20260904033230 | 89 | 67 | 6.0 | 7.0 | 0.00 | 0.00 | 0.00 | 23 | 1018.6 |
| 20260904032729 | 89 | 22 | 3.0 | 8.0 | 0.00 | 0.00 | 0.00 | 23 | 1018.6 |
| 20260904032226 | 89 | 67 | 4.0 | 5.0 | 0.00 | 0.00 | 0.00 | 24 | 1018.8 |
| 20260904031723 | 88 | 67 | 4.0 | 8.0 | 0.00 | 0.00 | 0.00 | 23 | 1018.8 |
| 20260904031223 | 88 | 180 | 7.0 | 9.0 | 0.00 | 0.00 | 0.00 | 24 | 1019.0 |
| 20260904030720 | 88 | 45 | 3.0 | 8.0 | 0.00 | 0.00 | 0.00 | 24 | 1019.0 |
| 20260904030218 | 88 | 157 | 1.0 | 7.0 | 0.00 | 0.00 | 0.00 | 24 | 1019.2 |
| 20260904025716 | 88 | 45 | 3.0 | 7.0 | 0.00 | 0.00 | 0.00 | 24 | 1019.2 |
| 20260904025214 | 88 | 45 | 9.0 | 9.0 | 0.00 | 0.00 | 0.00 | 23 | 1019.4 |
| 20260904025042 | 88 | 90 | 1.0 | 6.0 | 0.00 | 0.00 | 0.00 | 25 | 1019.5 |
| 20260904024537 | 88 | 168 | 4.0 | 7.0 | 0.00 | 0.00 | 0.00 | 25 | 1019.5 |
| 20260904024036 | 88 | 270 | 3.0 | 6.0 | 0.00 | 0.00 | 0.00 | 25 | 1019.7 |
| 20260904023534 | 87 | 180 | 6.0 | 11.0 | 0.00 | 0.00 | 0.00 | 25 | 1019.7 |
| 20260904023032 | 87 | 168 | 4.0 | 8.0 | 0.00 | 0.00 | 0.00 | 25 | 1019.7 |
| 20260904022529 | 87 | 90 | 8.0 | 8.0 | 0.00 | 0.00 | 0.00 | 25 | 1019.9 |
| 20260904022028 | 87 | 180 | 3.0 | 5.0 | 0.00 | 0.00 | 0.00 | 26 | 1020.1 |
| 20260904021524 | 87 | 337 | 0.0 | 2.0 | 0.00 | 0.00 | 0.00 | 27 | 1020.3 |
| 20260904021022 | 87 | 180 | 0.0 | 5.0 | 0.00 | 0.00 | 0.00 | 27 | 1020.4 |
| 20260904020521 | 87 | 202 | 3.0 | 5.0 | 0.00 | 0.00 | 0.00 | 26 | 1020.4 |
| 20260904020019 | 86 | 157 | 9.0 | 9.0 | 0.00 | 0.00 | 0.00 | 25 | 1020.4 |
| 20260904015516 | 86 | 135 | 2.0 | 5.0 | 0.00 | 0.00 | 0.00 | 27 | 1020.7 |
| 20260904015012 | 86 | 112 | 4.0 | 6.0 | 0.00 | 0.00 | 0.00 | 26 | 1020.8 |
| 20260904014511 | 86 | 45 | 3.0 | 7.0 | 0.00 | 0.00 | 0.00 | 26 | 1020.9 |
| 20260904014008 | 86 | 157 | 5.0 | 9.0 | 0.00 | 0.00 | 0.00 | 26 | 1021.1 |
| 20260904013506 | 85 | 157 | 2.0 | 4.0 | 0.00 | 0.00 | 0.00 | 28 | 1021.2 |
| 20260904013005 | 85 | 90 | 3.0 | 3.0 | 0.00 | 0.00 | 0.00 | 29 | 1021.3 |
| 20260904012502 | 85 | 225 | 4.0 | 4.0 | 0.00 | 0.00 | 0.00 | 29 | 1021.4 |
| 20260904011959 | 84 | 225 | 0.0 | 5.0 | 0.00 | 0.00 | 0.00 | 29 | 1021.5 |
| 20260904011458 | 84 | 270 | 1.0 | 6.0 | 0.00 | 0.00 | 0.00 | 29 | 1021.6 |
| 20260904010955 | 83 | 247 | 4.0 | 5.0 | 0.00 | 0.00 | 0.00 | 30 | 1021.6 |
| 20260904010453 | 83 | 270 | 3.0 | 6.0 | 0.00 | 0.00 | 0.00 | 30 | 1021.8 |
| 20260904005951 | 83 | 281 | 2.0 | 5.0 | 0.00 | 0.00 | 0.00 | 30 | 1021.9 |
| 20260904005447 | 83 | 270 | 4.0 | 6.0 | 0.00 | 0.00 | 0.00 | 30 | 1022.0 |
| 20260904004945 | 82 | 270 | 2.0 | 4.0 | 0.00 | 0.00 | 0.00 | 30 | 1022.0 |
| 20260904004444 | 82 | 225 | 5.0 | 5.0 | 0.00 | 0.00 | 0.00 | 30 | 1022.0 |
| 20260904003941 | 82 | 0 | 1.0 | 7.0 | 0.00 | 0.00 | 0.00 | 30 | 1022.1 |
| 20260904003439 | 82 | 315 | 5.0 | 7.0 | 0.00 | 0.00 | 0.00 | 30 | 1022.2 |
| 20260904002936 | 81 | 303 | 3.0 | 4.0 | 0.00 | 0.00 | 0.00 | 31 | 1022.3 |
| 20260904002434 | 81 | 225 | 0.0 | 6.0 | 0.00 | 0.00 | 0.00 | 32 | 1022.3 |
| 20260904001932 | 81 | 292 | 4.0 | 9.0 | 0.00 | 0.00 | 0.00 | 32 | 1022.4 |
| 20260904001429 | 80 | 22 | 5.0 | 7.0 | 0.00 | 0.00 | 0.00 | 30 | 1022.3 |
| 20260904000928 | 80 | 337 | 3.0 | 7.0 | 0.00 | 0.00 | 0.00 | 32 | 1022.4 |
| 20260904000425 | 80 | 0 | 3.0 | 7.0 | 0.00 | 0.00 | 0.00 | 32 | 1022.4 |
| 20260903235922 | 79 | 22 | 1.0 | 7.0 | 0.00 | 0.00 | 0.00 | 32 | 1022.4 |
| 20260903235421 | 79 | 11 | 2.0 | 8.0 | 0.00 | 0.00 | 0.00 | 32 | 1022.4 |
| 20260903234918 | 79 | 337 | 1.0 | 5.0 | 0.00 | 0.00 | 0.00 | 35 | 1022.5 |
| 20260903234417 | 79 | 247 | 3.0 | 5.0 | 0.00 | 0.00 | 0.00 | 35 | 1022.5 |
| 20260903233915 | 78 | 270 | 1.0 | 3.0 | 0.00 | 0.00 | 0.00 | 37 | 1022.7 |
| 20260903233411 | 78 | 247 | 3.0 | 4.0 | 0.00 | 0.00 | 0.00 | 37 | 1022.7 |
| 20260903232909 | 78 | 303 | 2.0 | 4.0 | 0.00 | 0.00 | 0.00 | 37 | 1022.8 |
| 20260903232406 | 78 | 0 | 3.0 | 3.0 | 0.00 | 0.00 | 0.00 | 37 | 1022.7 |
| 20260903231903 | 77 | 270 | 2.0 | 4.0 | 0.00 | 0.00 | 0.00 | 38 | 1022.8 |
| 20260903231400 | 77 | 225 | 1.0 | 4.0 | 0.00 | 0.00 | 0.00 | 39 | 1023.0 |
| 20260903230859 | 76 | 270 | 5.0 | 5.0 | 0.00 | 0.00 | 0.00 | 41 | 1023.0 |
| 20260903225855 | 75 | 0 | 2.0 | 3.0 | 0.00 | 0.00 | 0.00 | 38 | 1022.9 |
| 20260903225353 | 74 | 135 | 1.0 | 2.0 | 0.00 | 0.00 | 0.00 | 42 | 1023.0 |
| 20260903224849 | 73 | 270 | 0.0 | 2.0 | 0.00 | 0.00 | 0.00 | 44 | 1023.0 |
| 20260903224347 | 72 | 180 | 2.0 | 3.0 | 0.00 | 0.00 | 0.00 | 45 | 1023.0 |
| 20260903223844 | 72 | 146 | 0.0 | 3.0 | 0.00 | 0.00 | 0.00 | 47 | 1023.2 |
| 20260903223341 | 71 | 0 | 0.0 | 2.0 | 0.00 | 0.00 | 0.00 | 47 | 1023.1 |
| 20260903222839 | 70 | 22 | 1.0 | 2.0 | 0.00 | 0.00 | 0.00 | 48 | 1023.0 |
| 20260903222339 | 69 | 45 | 1.0 | 3.0 | 0.00 | 0.00 | 0.00 | 49 | 1022.9 |
| 20260903221838 | 68 | 135 | 0.0 | 2.0 | 0.00 | 0.00 | 0.00 | 50 | 1022.9 |
| 20260903221333 | 67 | 0 | 1.0 | 2.0 | 0.00 | 0.00 | 0.00 | 51 | 1022.9 |
| 20260903220832 | 67 | 135 | 1.0 | 3.0 | 0.00 | 0.00 | 0.00 | 54 | 1023.0 |
| 20260903220328 | 65 | 135 | 1.0 | 3.0 | 0.00 | 0.00 | 0.00 | 55 | 1023.0 |
| 20260903215826 | 65 | 45 | 1.0 | 2.0 | 0.00 | 0.00 | 0.00 | 57 | 1023.0 |
| 20260903215324 | 63 | 45 | 1.0 | 1.0 | 0.00 | 0.00 | 0.00 | 57 | 1023.0 |
| 20260903214821 | 62 | 90 | 1.0 | 2.0 | 0.00 | 0.00 | 0.00 | 58 | 1022.9 |
| 20260903214319 | 62 | 135 | 1.0 | 3.0 | 0.00 | 0.00 | 0.00 | 59 | 1022.9 |
| 20260903213816 | 60 | 90 | 2.0 | 2.0 | 0.00 | 0.00 | 0.00 | 60 | 1022.7 |
| 20260903213314 | 60 | 135 | 2.0 | 2.0 | 0.00 | 0.00 | 0.00 | 62 | 1022.9 |
| 20260903212812 | 59 | 101 | 1.0 | 2.0 | 0.00 | 0.00 | 0.00 | 62 | 1022.8 |
| 20260903212310 | 58 | 45 | 1.0 | 1.0 | 0.00 | 0.00 | 0.00 | 63 | 1022.7 |
| 20260903211808 | 57 | 135 | 0.0 | 0.0 | 0.00 | 0.00 | 0.00 | 65 | 1022.7 |
| 20260903211305 | 56 | 135 | 0.0 | 1.0 | 0.00 | 0.00 | 0.00 | 66 | 1022.6 |
| 20260903210803 | 55 | 0 | 1.0 | 1.0 | 0.00 | 0.00 | 0.00 | 67 | 1022.6 |
| 20260903210301 | 54 | 315 | 1.0 | 1.0 | 0.00 | 0.00 | 0.00 | 68 | 1022.5 |
| 20260903205758 | 54 | 0 | 1.0 | 1.0 | 0.00 | 0.00 | 0.00 | 68 | 1022.6 |
| 20260903205256 | 53 | 315 | 0.0 | 0.0 | 0.00 | 0.00 | 0.00 | 66 | 1022.3 |
| 20260903204753 | 53 | 315 | 0.0 | 0.0 | 0.00 | 0.00 | 0.00 | 66 | 1022.2 |
| 20260903204251 | 52 | 270 | 0.0 | 0.0 | 0.00 | 0.00 | 0.00 | 65 | 1022.2 |
| 20260903203749 | 52 | 315 | 0.0 | 0.0 | 0.00 | 0.00 | 0.00 | 64 | 1022.1 |
| 20260903203247 | 52 | 0 | 0.0 | 1.0 | 0.00 | 0.00 | 0.00 | 64 | 1022.0 |
| 20260903202745 | 52 | 202 | 1.0 | 1.0 | 0.00 | 0.00 | 0.00 | 64 | 1022.0 |
| 20260903202242 | 52 | 225 | 0.0 | 2.0 | 0.00 | 0.00 | 0.00 | 64 | 1021.9 |
| 20260903201740 | 52 | 180 | 1.0 | 3.0 | 0.00 | 0.00 | 0.00 | 64 | 1021.8 |
| 20260903201238 | 52 | 135 | 1.0 | 1.0 | 0.00 | 0.00 | 0.00 | 63 | 1021.7 |
| 20260903200735 | 53 | 270 | 0.0 | 0.0 | 0.00 | 0.00 | 0.00 | 63 | 1021.6 |
| 20260903200233 | 53 | 270 | 0.0 | 1.0 | 0.00 | 0.00 | 0.00 | 64 | 1021.5 |
| 20260903195731 | 53 | 225 | 1.0 | 2.0 | 0.00 | 0.00 | 0.00 | 65 | 1021.6 |
| 20260903195228 | 53 | 180 | 1.0 | 1.0 | 0.00 | 0.00 | 0.00 | 64 | 1021.5 |
| 20260903194726 | 53 | 135 | 0.0 | 1.0 | 0.00 | 0.00 | 0.00 | 64 | 1021.5 |
| 20260903194226 | 53 | 180 | 1.0 | 2.0 | 0.00 | 0.00 | 0.00 | 65 | 1021.4 |
| 20260903193722 | 53 | 180 | 2.0 | 3.0 | 0.00 | 0.00 | 0.00 | 65 | 1021.4 |
| 20260903193220 | 53 | 180 | 2.0 | 2.0 | 0.00 | 0.00 | 0.00 | 65 | 1021.4 |
| 20260903192719 | 52 | 191 | 2.0 | 3.0 | 0.00 | 0.00 | 0.00 | 66 | 1021.3 |
| 20260903192218 | 52 | 180 | 2.0 | 3.0 | 0.00 | 0.00 | 0.00 | 65 | 1021.3 |
| 20260903191714 | 52 | 180 | 3.0 | 3.0 | 0.00 | 0.00 | 0.00 | 64 | 1021.2 |
| 20260903191210 | 52 | 180 | 1.0 | 1.0 | 0.00 | 0.00 | 0.00 | 63 | 1021.1 |
| 20260903190708 | 52 | 270 | 0.0 | 0.0 | 0.00 | 0.00 | 0.00 | 62 | 1020.8 |
| 20260903190205 | 52 | 135 | 0.0 | 1.0 | 0.00 | 0.00 | 0.00 | 62 | 1020.8 |
| 20260903185703 | 53 | 135 | 0.0 | 1.0 | 0.00 | 0.00 | 0.00 | 62 | 1020.8 |
| 20260903185201 | 53 | 90 | 0.0 | 0.0 | 0.00 | 0.00 | 0.00 | 62 | 1020.7 |
| 20260903184659 | 53 | 270 | 0.0 | 1.0 | 0.00 | 0.00 | 0.00 | 63 | 1020.7 |
| 20260903184157 | 53 | 135 | 1.0 | 1.0 | 0.00 | 0.00 | 0.00 | 62 | 1020.5 |
| 20260903183654 | 53 | 135 | 0.0 | 0.0 | 0.00 | 0.00 | 0.00 | 62 | 1020.6 |
| 20260903183152 | 53 | 270 | 0.0 | 1.0 | 0.00 | 0.00 | 0.00 | 61 | 1020.5 |
| 20260903182650 | 53 | 225 | 0.0 | 0.0 | 0.00 | 0.00 | 0.00 | 60 | 1020.5 |
| 20260903182147 | 53 | 270 | 0.0 | 0.0 | 0.00 | 0.00 | 0.00 | 61 | 1020.6 |
| 20260903181645 | 54 | 315 | 0.0 | 1.0 | 0.00 | 0.00 | 0.00 | 61 | 1020.6 |
| 20260903181143 | 54 | 315 | 1.0 | 2.0 | 0.00 | 0.00 | 0.00 | 61 | 1020.5 |
| 20260903180640 | 54 | 315 | 0.0 | 0.0 | 0.00 | 0.00 | 0.00 | 60 | 1020.3 |
| 20260903180138 | 54 | 315 | 0.0 | 0.0 | 0.00 | 0.00 | 0.00 | 59 | 1020.2 |
| 20260903175636 | 54 | 315 | 0.0 | 0.0 | 0.00 | 0.00 | 0.00 | 59 | 1020.2 |
| 20260903175136 | 55 | 315 | 0.0 | 0.0 | 0.00 | 0.00 | 0.00 | 59 | 1020.2 |
| 20260903174632 | 55 | 225 | 0.0 | 0.0 | 0.00 | 0.00 | 0.00 | 58 | 1020.2 |
| 20260903174129 | 55 | 45 | 0.0 | 0.0 | 0.00 | 0.00 | 0.00 | 58 | 1020.1 |
| 20260903173627 | 56 | 225 | 0.0 | 0.0 | 0.00 | 0.00 | 0.00 | 57 | 1020.1 |
| 20260903173124 | 56 | 0 | 0.0 | 0.0 | 0.00 | 0.00 | 0.00 | 57 | 1020.1 |
| 20260903172623 | 56 | 225 | 0.0 | 0.0 | 0.00 | 0.00 | 0.00 | 57 | 1020.2 |
| 20260903172120 | 56 | 225 | 0.0 | 0.0 | 0.00 | 0.00 | 0.00 | 56 | 1020.1 |
| 20260903171617 | 57 | 90 | 0.0 | 0.0 | 0.00 | 0.00 | 0.00 | 56 | 1020.2 |
| 20260903171115 | 57 | 225 | 0.0 | 1.0 | 0.00 | 0.00 | 0.00 | 56 | 1020.2 |
| 20260903170613 | 57 | 225 | 0.0 | 0.0 | 0.00 | 0.00 | 0.00 | 55 | 1020.1 |
| 20260903170111 | 58 | 225 | 0.0 | 1.0 | 0.00 | 0.00 | 0.00 | 56 | 1020.1 |
| 20260903165609 | 58 | 135 | 0.0 | 1.0 | 0.00 | 0.00 | 0.00 | 55 | 1020.2 |
| 20260903165106 | 58 | 90 | 0.0 | 1.0 | 0.00 | 0.00 | 0.00 | 55 | 1020.1 |
| 20260903164604 | 58 | 315 | 0.0 | 0.0 | 0.00 | 0.00 | 0.00 | 55 | 1020.2 |
| 20260903164101 | 58 | 270 | 1.0 | 3.0 | 0.00 | 0.00 | 0.00 | 56 | 1020.2 |
| 20260903163559 | 58 | 180 | 2.0 | 3.0 | 0.00 | 0.00 | 0.00 | 56 | 1020.2 |
| 20260903163057 | 58 | 180 | 2.0 | 2.0 | 0.00 | 0.00 | 0.00 | 56 | 1020.2 |
| 20260903162555 | 58 | 180 | 1.0 | 1.0 | 0.00 | 0.00 | 0.00 | 56 | 1020.1 |
| 20260903162052 | 58 | 180 | 1.0 | 1.0 | 0.00 | 0.00 | 0.00 | 55 | 1020.2 |
| 20260903161550 | 58 | 180 | 1.0 | 1.0 | 0.00 | 0.00 | 0.00 | 55 | 1020.3 |
| 20260903161048 | 58 | 180 | 1.0 | 1.0 | 0.00 | 0.00 | 0.00 | 55 | 1020.3 |
| 20260903160546 | 58 | 180 | 1.0 | 1.0 | 0.00 | 0.00 | 0.00 | 55 | 1020.3 |
| 20260903160044 | 58 | 180 | 1.0 | 1.0 | 0.00 | 0.00 | 0.00 | 54 | 1020.3 |
| 20260903155541 | 59 | 180 | 0.0 | 0.0 | 0.00 | 0.00 | 0.00 | 53 | 1020.3 |
| 20260903155038 | 59 | 180 | 0.0 | 0.0 | 0.00 | 0.00 | 0.00 | 52 | 1020.2 |
| 20260903154538 | 59 | 225 | 0.0 | 0.0 | 0.00 | 0.00 | 0.00 | 53 | 1020.3 |
| 20260903154034 | 60 | 225 | 0.0 | 0.0 | 0.00 | 0.00 | 0.00 | 53 | 1020.3 |
| 20260903153532 | 60 | 180 | 1.0 | 1.0 | 0.00 | 0.00 | 0.00 | 53 | 1020.4 |
| 20260903153029 | 60 | 225 | 0.0 | 1.0 | 0.00 | 0.00 | 0.00 | 53 | 1020.5 |
| 20260903152529 | 60 | 225 | 0.0 | 1.0 | 0.00 | 0.00 | 0.00 | 53 | 1020.5 |
| 20260903152025 | 60 | 225 | 0.0 | 1.0 | 0.00 | 0.00 | 0.00 | 53 | 1020.5 |
| 20260903151018 | 60 | 45 | 0.0 | 0.0 | 0.00 | 0.00 | 0.00 | 53 | 1020.6 |
| 20260903150515 | 60 | 45 | 0.0 | 0.0 | 0.00 | 0.00 | 0.00 | 52 | 1020.6 |
| 20260903150012 | 61 | 45 | 0.0 | 1.0 | 0.00 | 0.00 | 0.00 | 52 | 1020.5 |
| 20260903145510 | 61 | 45 | 0.0 | 0.0 | 0.00 | 0.00 | 0.00 | 52 | 1020.6 |
| 20260903145008 | 61 | 45 | 0.0 | 0.0 | 0.00 | 0.00 | 0.00 | 52 | 1020.6 |
| 20260903144506 | 61 | 45 | 0.0 | 0.0 | 0.00 | 0.00 | 0.00 | 51 | 1020.6 |
| 20260903144004 | 61 | 45 | 0.0 | 0.0 | 0.00 | 0.00 | 0.00 | 51 | 1020.6 |
| 20260903143501 | 61 | 45 | 1.0 | 1.0 | 0.00 | 0.00 | 0.00 | 51 | 1020.6 |
| 20260903142959 | 62 | 0 | 0.0 | 0.0 | 0.00 | 0.00 | 0.00 | 51 | 1020.7 |
| 20260903142457 | 62 | 0 | 0.0 | 0.0 | 0.00 | 0.00 | 0.00 | 51 | 1020.7 |
| 20260903141955 | 62 | 0 | 0.0 | 1.0 | 0.00 | 0.00 | 0.00 | 51 | 1020.7 |
| 20260903140949 | 62 | 0 | 0.0 | 1.0 | 0.00 | 0.00 | 0.00 | 50 | 1020.7 |
| 20260903140450 | 62 | 45 | 0.0 | 0.0 | 0.00 | 0.00 | 0.00 | 50 | 1020.7 |
| 20260903135945 | 62 | 315 | 0.0 | 0.0 | 0.00 | 0.00 | 0.00 | 50 | 1020.7 |
| 20260903135443 | 62 | 315 | 0.0 | 0.0 | 0.00 | 0.00 | 0.00 | 50 | 1020.9 |
| 20260903134941 | 62 | 90 | 0.0 | 0.0 | 0.00 | 0.00 | 0.00 | 50 | 1020.9 |
| 20260903134439 | 62 | 90 | 0.0 | 0.0 | 0.00 | 0.00 | 0.00 | 50 | 1020.8 |
| 20260903133936 | 62 | 45 | 0.0 | 0.0 | 0.00 | 0.00 | 0.00 | 49 | 1020.8 |
| 20260903133434 | 62 | 225 | 0.0 | 0.0 | 0.00 | 0.00 | 0.00 | 49 | 1020.8 |
| 20260903132932 | 63 | 45 | 0.0 | 1.0 | 0.00 | 0.00 | 0.00 | 49 | 1020.8 |
| 20260903132429 | 63 | 0 | 0.0 | 1.0 | 0.00 | 0.00 | 0.00 | 49 | 1020.8 |
| 20260903131424 | 63 | 90 | 0.0 | 1.0 | 0.00 | 0.00 | 0.00 | 49 | 1020.8 |
| 20260903130922 | 63 | 0 | 0.0 | 1.0 | 0.00 | 0.00 | 0.00 | 48 | 1020.8 |
| 20260903130420 | 63 | 0 | 0.0 | 1.0 | 0.00 | 0.00 | 0.00 | 48 | 1020.7 |
| 20260903125918 | 63 | 0 | 1.0 | 1.0 | 0.00 | 0.00 | 0.00 | 48 | 1020.8 |
| 20260903125416 | 63 | 90 | 0.0 | 1.0 | 0.00 | 0.00 | 0.00 | 48 | 1020.8 |
| 20260903124913 | 63 | 0 | 1.0 | 1.0 | 0.00 | 0.00 | 0.00 | 48 | 1020.8 |
| 20260903124411 | 63 | 0 | 2.0 | 3.0 | 0.00 | 0.00 | 0.00 | 50 | 1020.8 |
| 20260903123909 | 63 | 90 | 0.0 | 1.0 | 0.00 | 0.00 | 0.00 | 48 | 1020.8 |
| 20260903123406 | 63 | 0 | 1.0 | 1.0 | 0.00 | 0.00 | 0.00 | 47 | 1020.7 |
| 20260903122904 | 63 | 45 | 0.0 | 1.0 | 0.00 | 0.00 | 0.00 | 46 | 1020.7 |
| 20260903122401 | 64 | 315 | 0.0 | 0.0 | 0.00 | 0.00 | 0.00 | 47 | 1020.6 |
| 20260903121859 | 64 | 315 | 0.0 | 0.0 | 0.00 | 0.00 | 0.00 | 46 | 1020.6 |
| 20260903121357 | 64 | 315 | 0.0 | 0.0 | 0.00 | 0.00 | 0.00 | 46 | 1020.7 |
| 20260903120855 | 64 | 315 | 0.0 | 0.0 | 0.00 | 0.00 | 0.00 | 46 | 1020.6 |
| 20260903120353 | 64 | 315 | 0.0 | 0.0 | 0.00 | 0.00 | 0.00 | 46 | 1020.6 |
| 20260903115851 | 65 | 315 | 0.0 | 0.0 | 0.00 | 0.00 | 0.00 | 45 | 1020.6 |
| 20260903115348 | 65 | 315 | 0.0 | 0.0 | 0.00 | 0.00 | 0.00 | 45 | 1020.6 |
| 20260903114340 | 65 | 270 | 0.0 | 1.0 | 0.00 | 0.00 | 0.00 | 45 | 1020.6 |
| 20260903113838 | 65 | 315 | 0.0 | 0.0 | 0.00 | 0.00 | 0.00 | 45 | 1020.6 |
| 20260903113336 | 65 | 315 | 1.0 | 1.0 | 0.00 | 0.00 | 0.00 | 46 | 1020.6 |
| 20260903112833 | 65 | 348 | 1.0 | 2.0 | 0.00 | 0.00 | 0.00 | 45 | 1020.5 |
| 20260903112331 | 65 | 315 | 0.0 | 0.0 | 0.00 | 0.00 | 0.00 | 44 | 1020.5 |
| 20260903111831 | 65 | 135 | 0.0 | 0.0 | 0.00 | 0.00 | 0.00 | 45 | 1020.4 |
| 20260903111327 | 65 | 135 | 0.0 | 0.0 | 0.00 | 0.00 | 0.00 | 45 | 1020.4 |
| 20260903110825 | 65 | 45 | 0.0 | 0.0 | 0.00 | 0.00 | 0.00 | 44 | 1020.3 |
| 20260903110322 | 65 | 45 | 0.0 | 0.0 | 0.00 | 0.00 | 0.00 | 42 | 1020.3 |
| 20260903105317 | 67 | 315 | 0.0 | 0.0 | 0.00 | 0.00 | 0.00 | 43 | 1020.4 |
| 20260903104815 | 67 | 270 | 0.0 | 0.0 | 0.00 | 0.00 | 0.00 | 42 | 1020.2 |
| 20260903104313 | 67 | 270 | 0.0 | 0.0 | 0.00 | 0.00 | 0.00 | 41 | 1020.2 |
| 20260903103810 | 68 | 270 | 0.0 | 0.0 | 0.00 | 0.00 | 0.00 | 41 | 1020.1 |
| 20260903103308 | 68 | 270 | 0.0 | 0.0 | 0.00 | 0.00 | 0.00 | 41 | 1020.2 |
| 20260903102806 | 68 | 270 | 0.0 | 0.0 | 0.00 | 0.00 | 0.00 | 40 | 1020.0 |
| 20260903102306 | 69 | 270 | 0.0 | 0.0 | 0.00 | 0.00 | 0.00 | 40 | 1019.9 |
| 20260903101802 | 69 | 270 | 0.0 | 0.0 | 0.00 | 0.00 | 0.00 | 40 | 1019.9 |
| 20260903101302 | 69 | 270 | 0.0 | 0.0 | 0.00 | 0.00 | 0.00 | 40 | 1019.9 |
| 20260903100757 | 70 | 270 | 0.0 | 0.0 | 0.00 | 0.00 | 0.00 | 39 | 1019.9 |
| 20260903100255 | 70 | 270 | 1.0 | 1.0 | 0.00 | 0.00 | 0.00 | 39 | 1019.8 |
| 20260903095251 | 71 | 270 | 0.0 | 0.0 | 0.00 | 0.00 | 0.00 | 38 | 1019.6 |
| 20260903094748 | 71 | 270 | 0.0 | 0.0 | 0.00 | 0.00 | 0.00 | 38 | 1019.6 |
| 20260903094245 | 71 | 270 | 0.0 | 0.0 | 0.00 | 0.00 | 0.00 | 38 | 1019.6 |
| 20260903093745 | 71 | 315 | 0.0 | 0.0 | 0.00 | 0.00 | 0.00 | 37 | 1019.6 |
| 20260903093243 | 72 | 45 | 0.0 | 0.0 | 0.00 | 0.00 | 0.00 | 37 | 1019.4 |
| 20260903092739 | 72 | 45 | 0.0 | 0.0 | 0.00 | 0.00 | 0.00 | 37 | 1019.5 |
| 20260903092237 | 72 | 0 | 0.0 | 0.0 | 0.00 | 0.00 | 0.00 | 37 | 1019.3 |
| 20260903091734 | 73 | 0 | 0.0 | 0.0 | 0.00 | 0.00 | 0.00 | 36 | 1019.3 |
| 20260903091234 | 73 | 0 | 0.0 | 0.0 | 0.00 | 0.00 | 0.00 | 35 | 1019.3 |
| 20260903090729 | 74 | 0 | 0.0 | 0.0 | 0.00 | 0.00 | 0.00 | 35 | 1019.3 |
| 20260903090227 | 74 | 90 | 0.0 | 0.0 | 0.00 | 0.00 | 0.00 | 34 | 1019.2 |
| 20260903085725 | 75 | 90 | 0.0 | 0.0 | 0.00 | 0.00 | 0.00 | 34 | 1019.2 |
| 20260903085222 | 75 | 90 | 0.0 | 0.0 | 0.00 | 0.00 | 0.00 | 34 | 1019.1 |
| 20260903084720 | 76 | 180 | 0.0 | 0.0 | 0.00 | 0.00 | 0.00 | 33 | 1019.0 |
| 20260903084218 | 76 | 45 | 0.0 | 0.0 | 0.00 | 0.00 | 0.00 | 33 | 1018.9 |
| 20260903083719 | 77 | 45 | 0.0 | 0.0 | 0.00 | 0.00 | 0.00 | 32 | 1019.0 |
| 20260903083215 | 77 | 45 | 0.0 | 1.0 | 0.00 | 0.00 | 0.00 | 32 | 1019.0 |
| 20260903082714 | 78 | 0 | 0.0 | 0.0 | 0.00 | 0.00 | 0.00 | 32 | 1019.0 |
| 20260903082213 | 78 | 270 | 0.0 | 0.0 | 0.00 | 0.00 | 0.00 | 31 | 1018.9 |
| 20260903081709 | 79 | 270 | 0.0 | 0.0 | 0.00 | 0.00 | 0.00 | 31 | 1018.9 |
| 20260903081205 | 80 | 90 | 0.0 | 0.0 | 0.00 | 0.00 | 0.00 | 30 | 1018.8 |
| 20260903080702 | 80 | 90 | 0.0 | 0.0 | 0.00 | 0.00 | 0.00 | 30 | 1018.8 |
| 20260903080200 | 81 | 90 | 0.0 | 1.0 | 0.00 | 0.00 | 0.00 | 29 | 1018.8 |
| 20260903075700 | 81 | 90 | 1.0 | 1.0 | 0.00 | 0.00 | 0.00 | 29 | 1018.8 |
| 20260903075156 | 82 | 90 | 1.0 | 1.0 | 0.00 | 0.00 | 0.00 | 29 | 1018.8 |
| 20260903074654 | 82 | 45 | 1.0 | 2.0 | 0.00 | 0.00 | 0.00 | 28 | 1018.7 |
| 20260903074154 | 83 | 90 | 0.0 | 1.0 | 0.00 | 0.00 | 0.00 | 28 | 1018.6 |
| 20260903073649 | 83 | 45 | 1.0 | 3.0 | 0.00 | 0.00 | 0.00 | 27 | 1018.7 |
| 20260903073146 | 83 | 45 | 2.0 | 3.0 | 0.00 | 0.00 | 0.00 | 27 | 1018.7 |
| 20260903072646 | 84 | 78 | 2.0 | 3.0 | 0.00 | 0.00 | 0.00 | 27 | 1018.7 |